Location: Unspecified
(0.0000°N, 0.0000°E)
Time: 05:08:11
(UTC+00:00)

deb West Ford - Pass Details

Date: 24 May 2026
Orbit: 2163 x 4941 km, 86.7° (Epoch: 8 June)

Event Time Altitude Azimuth Distance (km) Brightness Sun altitude
Exits shadow 01:33:36 28° 1° (N) 3,466 ? -58.5°
Drops below altitude 10° 01:37:37 10° 0° (N) 4,674 ? -57.8°
Sets 01:40:43 0° 0° (N) 5,685 ? -57.2°
